User: anonymous   Login
Location: Unspecified
(0.0000°N, 0.0000°E)
Time: 06:06:13
(UTC+00:00)
Language:

MERIDIAN 1 - Orbit

View from above orbital plane
View from above orbital plane
View from above satellite
View from above satellite

Ground track
Ground track

The orbit data is extracted from the following two-line orbital elements,

1 29668U 06061A   20223.87142254 +.00046217 -16476-5 +12188-2 0  9998
2 29668 061.6691 277.1355 7478386 238.7623 028.3498 02.07785756099948
Epoch (UTC): 10 August 2020 20:54:50
Eccentricity: 0.7478386
inclination: 61.6691°
perigee height: 163 km
apogee height: 38962 km
right ascension of ascending node: 277.1355°
argument of perigee: 238.7623°
revolutions per day: 2.07785756
mean anomaly at epoch: 28.3498°
orbit number at epoch: 9994

The dashed part of the orbit path shows where the satellite is in the earth's shadow,  

DLR